sat.trackr.live / text

‹ back to catalog

STARLINK-36245

NORAD 68328 · 2026-059H

PAYLOAD ACTIVE UNKNOWN

§ Identity

Operator
Country
US
Launch date
2026-03-22
Launch site
AFETR
Launch vehicle
Mass (kg)
RCS (m²)

Purposes: comms

External: N2YO · Heavens-Above · Gunter

§ Orbital elements

Epoch: 2026-05-24T22:59:45.359232Z

Period
94.11 min
Inclination
53.1593°
Eccentricity
0.0001283
Mean motion
15.30193661 rev/d
Perigee alt
474.4 km
Apogee alt
476.1 km
Semi-major
6,853.4 km
B*
5.2443e-4
RAAN
353.9397°
Arg perigee
74.4258°
Mean anomaly
285.6884°
Rev number
985

§ Raw data

STARLINK-362451 68328U 26059H   26144.95816388  .00015202  00000+0  52443-3 0  99942 68328  53.1593 353.9397 0001283  74.4258 285.6884 15.30193661  9856

JSON: /api/v1/satellites/68328 · /tle

For live sub-satellite position, see the globe view (requires WebGL).

§ Visibility from observer

Set your observer location to see the next 7 days of passes ≥ 10°. The values pass through the URL so the page stays shareable.

No JS? Fill the form by hand. The geolocation button needs JavaScript.